Wind_Speed
4 5 6 8 10 10 11 11 12 12 14 15 17 18 20 22 24 27 29 31 34 35 37 39 41 42 43 44 44 44 44 45 45 45 45 46 46 46 46 45 45 46 46 46
3 4 6 8 10 11 12 13 14 15 15 18 19 21 22 24 26 29 31 33 34 36 37 38 40 42 43 44 44 45 45 45 46 46 45 45 45 44 44 44 44 44 44 44
3 4 6 7 9 11 13 14 16 17 18 20 22 24 25 27 29 30 32 33 34 36 37 38 40 41 42 43 44 45 45 45 45 45 45 45 44 44 44 43 43 42 42 43
3 5 5 6 9 11 12 14 17 19 21 22 24 25 27 29 31 32 33 33 35 37 38 39 40 41 42 43 44 45 45 45 45 45 45 44 44 44 44 43 43 42 42 42
4 5 6 7 8 10 11 13 16 18 20 22 24 26 28 30 31 32 33 34 35 37 38 39 40 41 42 42 43 44 45 45 45 45 45 44 44 44 43 43 43 43 43 43
5 6 7 8 9 11 12 13 16 18 20 22 24 26 28 30 31 32 33 34 35 36 37 38 39 40 42 42 43 43 44 44 44 44 44 44 43 43 43 42 42 43 43 43
6 7 7 9 10 12 13 14 17 19 21 23 25 27 28 30 31 32 33 35 35 36 37 38 39 40 41 41 42 43 43 43 43 43 44 44 44 43 43 43 43 43 43 43
8 8 8 10 12 12 14 16 18 20 22 24 26 28 29 30 31 32 33 35 35 36 36 38 38 39 40 40 41 41 42 43 43 43 43 43 43 43 43 43 43 42 42 42
9 10 10 12 12 14 15 17 19 20 22 24 26 28 30 31 32 33 34 35 36 36 36 37 38 38 38 39 40 41 41 42 42 42 42 42 43 43 43 42 42 42 42 41
11 12 13 14 15 16 17 18 20 22 23 25 27 29 30 32 33 34 36 37 37 37 37 37 38 37 38 39 39 39 40 40 41 41 42 41 41 41 41 41 41 40 40 40
13 15 16 16 17 18 19 20 22 23 25 27 28 29 30 32 33 35 36 37 37 38 38 38 38 38 38 38 38 38 38 38 39 40 40 40 40 40 40 39 39 39 39 39
15 17 18 19 20 21 22 23 24 26 27 28 29 30 31 32 33 34 36 37 37 37 37 37 37 38 38 38 38 38 38 38 38 38 39 39 39 39 39 39 39 39 38 38
17 18 20 21 22 24 25 26 27 28 29 30 31 31 32 33 34 35 36 36 36 36 36 37 37 37 38 38 38 38 38 38 38 38 38 38 38 38 38 38 38 38 38 38
19 20 22 23 24 26 27 29 30 31 31 32 32 33 34 35 35 36 36 36 36 36 36 37 37 38 38 38 38 38 38 37 37 37 37 37 38 38 37 37 38 38 38 37
21 22 23 25 26 28 29 31 32 33 34 34 35 35 36 36 36 37 37 37 37 36 37 37 37 37 38 37 37 37 38 38 37 37 37 37 37 38 38 37 37 37 37 37
23 24 25 27 29 30 31 33 34 35 36 37 37 38 38 38 38 38 38 37 36 36 36 37 36 36 36 36 37 37 38 37 37 37 37 37 37 37 38 37 37 37 36 37
24 26 27 29 31 32 34 35 37 38 38 39 40 40 40 40 39 39 39 38 38 37 37 36 35 35 34 34 35 35 36 36 37 37 37 37 37 36 36 36 36 36 36 36
26 28 29 31 32 34 36 38 39 40 41 42 42 42 41 40 40 41 41 40 39 39 38 37 36 35 35 34 34 34 34 34 35 36 36 36 36 35 35 35 35 35 36 36
28 30 31 33 35 36 38 40 41 42 43 44 44 43 42 41 42 42 42 41 40 38 37 36 35 35 35 35 35 35 35 34 34 34 34 34 34 35 35 35 35 35 35 35
30 32 33 35 37 38 40 42 43 44 44 45 44 44 43 43 44 43 42 41 39 37 36 35 35 34 34 35 35 34 34 34 34 34 34 34 33 34 34 34 34 34 34 34
32 33 35 37 39 40 42 44 45 45 46 46 45 45 45 44 44 42 41 39 37 36 34 34 34 33 33 33 33 33 33 33 33 34 34 34 33 33 33 34 34 34 33 33
33 35 37 39 41 42 44 45 46 47 47 47 47 47 46 44 43 41 39 38 36 35 35 34 33 32 31 31 31 31 32 32 32 33 33 34 34 34 34 33 33 32 32 32
35 37 39 41 43 44 46 47 48 48 48 48 48 47 46 44 43 41 39 38 37 37 35 33 32 31 31 31 31 31 31 32 32 32 33 33 34 34 34 33 32 32 31 31
37 39 41 43 45 46 47 48 49 49 49 49 49 48 46 44 42 41 40 39 38 37 35 33 32 31 31 30 30 30 30 31 31 32 33 32 33 33 33 33 32 32 32 32
39 41 43 45 46 47 48 50 50 50 50 49 49 48 46 44 42 41 40 39 38 36 33 32 31 30 29 28 27 27 28 28 29 30 30 31 32 32 32 32 32 32 32 32
41 43 45 46 48 49 50 51 51 51 51 50 49 48 46 44 42 41 40 39 37 35 33 31 30 28 27 25 25 25 25 25 26 27 28 29 30 31 32 32 32 32 32 32
42 44 46 48 49 51 52 52 52 52 51 50 49 48 46 44 43 42 41 39 37 35 33 31 29 27 25 23 22 22 22 23 23 24 25 26 27 28 29 30 31 31 31 31
Wind_Direction
226 230 234 236 239 243 246 247 251 250 249 250 252 254 255 255 256 256 256 256 257 258 257 257 257 256 257 257 257 258 258 259 260 260 261 262 263 263 264 265 267 268 269 271
246 249 245 245 248 251 252 254 257 259 260 261 262 262 263 263 262 261 259 259 258 258 258 258 258 257 258 258 258 258 259 259 260 260 261 262 262 263 264 265 267 268 269 270
271 272 266 257 258 259 258 258 261 263 265 267 267 267 268 268 268 268 266 265 263 261 259 259 258 258 258 258 258 259 259 260 260 260 261 261 262 263 264 265 266 268 269 270
294 288 279 275 269 267 266 266 266 267 268 270 271 271 271 271 271 271 269 267 266 264 263 261 260 259 260 260 259 258 259 260 260 260 261 262 263 263 264 265 267 268 269 271
311 300 295 290 285 281 279 276 276 275 274 274 275 275 275 275 273 272 272 270 269 267 265 263 263 261 260 260 260 259 259 260 260 261 261 262 263 263 264 265 266 267 269 271
334 322 313 305 295 290 288 286 287 285 283 281 280 279 279 277 276 274 274 273 271 269 267 266 264 263 263 263 262 261 261 261 261 261 261 262 262 263 263 264 265 267 269 270
346 333 325 318 307 302 297 295 292 291 290 288 286 284 282 280 278 277 277 275 274 272 270 269 267 266 266 265 264 263 262 262 262 261 261 261 262 262 263 264 265 267 268 270
350 341 328 326 320 313 307 303 300 297 295 293 290 288 285 283 281 280 280 279 277 276 274 271 270 268 267 266 265 264 263 263 262 261 261 261 261 261 262 263 265 266 267 269
348 342 336 332 326 321 316 312 308 305 302 299 296 292 289 286 284 283 284 283 281 278 277 274 272 270 269 267 266 265 264 264 263 262 261 261 261 261 262 263 264 265 266 267
339 337 334 332 329 325 321 319 315 312 309 305 301 298 293 290 287 286 285 284 282 280 278 276 275 273 271 270 268 267 265 264 263 262 261 261 261 262 262 263 263 264 265 266
331 332 331 330 329 328 325 322 320 318 314 310 306 303 299 296 292 290 288 287 285 282 278 276 275 274 272 270 268 267 265 264 263 261 261 261 261 261 261 262 262 263 263 264
323 325 326 327 327 326 325 324 323 321 318 315 312 309 305 302 299 295 293 290 288 285 281 278 275 273 272 270 267 265 265 264 262 261 261 261 260 260 261 261 262 262 263 264
318 320 322 323 323 324 324 323 323 322 320 317 315 313 310 307 304 300 297 295 291 287 283 280 276 274 272 270 268 266 265 263 261 261 260 260 259 259 259 260 261 262 262 262
315 317 319 321 322 323 323 323 323 322 320 319 316 315 313 310 307 304 300 297 294 290 286 282 279 276 274 270 268 267 265 264 262 260 260 259 259 258 259 259 260 261 261 262
313 316 318 319 320 321 322 322 322 321 320 319 317 316 314 312 309 307 304 301 297 294 290 286 282 278 275 272 269 266 265 263 261 261 260 259 258 258 258 258 259 261 261 261
311 314 316 318 320 321 321 322 322 321 320 319 318 316 314 313 310 308 306 304 300 296 293 289 285 281 277 272 269 266 265 263 261 261 259 259 258 258 258 258 259 259 260 261
311 313 315 317 319 320 321 321 321 321 320 319 318 316 315 313 311 309 307 305 302 298 294 291 288 284 280 275 270 267 265 263 261 261 259 258 259 258 258 258 258 259 259 261
309 312 314 317 318 320 321 321 322 321 320 319 318 317 315 314 311 310 308 306 303 299 295 291 289 285 280 276 271 268 267 265 262 261 259 258 257 257 257 258 258 259 259 260
309 311 314 316 318 320 321 321 321 321 320 320 319 318 316 314 313 312 310 308 304 301 297 293 289 285 280 277 272 269 267 265 263 261 259 257 257 257 258 258 258 259 260 261
309 311 313 316 318 320 321 321 321 321 320 320 320 319 316 315 315 314 312 310 307 302 299 296 292 287 282 277 273 269 267 265 262 260 259 257 256 256 257 257 258 259 259 260
309 311 314 316 318 320 321 322 321 321 321 321 321 319 317 316 316 316 314 312 309 305 301 299 296 290 285 280 275 270 267 264 261 259 258 257 256 256 257 258 258 258 259 259
309 311 314 316 318 320 321 321 321 321 321 321 321 320 319 318 317 317 316 314 311 308 305 302 298 292 287 282 276 271 267 264 261 259 259 258 256 255 256 257 257 257 257 258
309 311 314 316 318 320 321 321 321 321 321 321 321 320 319 318 318 317 315 314 312 311 308 304 298 292 287 282 277 271 267 264 262 260 259 258 256 255 255 255 255 256 257 258
309 311 314 316 318 319 320 321 321 320 320 321 320 320 320 319 318 317 315 313 312 311 309 305 299 292 287 283 278 274 270 267 264 262 259 257 256 255 255 254 254 256 257 258
309 312 314 317 318 319 320 320 320 320 320 320 320 320 319 319 317 316 316 315 313 312 308 305 301 295 289 285 281 277 272 267 264 261 259 256 255 254 254 254 254 255 256 257
309 312 314 316 317 318 319 319 319 319 319 319 319 319 318 318 317 316 316 315 314 312 308 304 302 298 292 286 282 278 274 270 267 263 259 257 256 255 254 254 254 255 256 257
309 312 313 315 316 317 318 318 319 318 318 318 318 318 317 317 316 316 316 314 312 310 307 304 301 298 293 288 282 279 276 273 270 266 261 259 258 257 255 254 254 255 256 256
Height
5624 5626 5627 5628 5630 5632 5634 5635 5637 5639 5640 5642 5643 5644 5645 5646 5647 5648 5648 5648 5649 5649 5649 5650 5651 5652 5654 5655 5657 5658 5660 5661 5662 5664 5665 5666 5667 5668 5669 5670 5671 5672 5672 5672
5624 5625 5626 5627 5629 5630 5631 5633 5634 5635 5637 5637 5638 5639 5639 5640 5640 5640 5640 5640 5640 5640 5640 5640 5641 5641 5643 5644 5645 5647 5648 5649 5651 5652 5653 5655 5656 5657 5658 5659 5659 5660 5660 5661
5624 5624 5625 5626 5627 5628 5629 5630 5631 5631 5633 5632 5633 5633 5633 5633 5632 5631 5631 5630 5630 5630 5630 5630 5630 5631 5632 5632 5633 5635 5636 5637 5639 5640 5641 5643 5644 5645 5646 5647 5648 5649 5649 5649
5623 5624 5624 5627 5624 5625 5625 5626 5626 5627 5627 5627 5626 5626 5626 5625 5624 5623 5622 5621 5620 5620 5620 5620 5620 5620 5621 5621 5622 5623 5624 5626 5627 5628 5630 5631 5632 5633 5634 5635 5636 5637 5638 5638
5622 5622 5623 5623 5622 5622 5622 5622 5622 5621 5621 5620 5619 5619 5618 5616 5615 5614 5613 5612 5611 5610 5609 5609 5609 5609 5610 5610 5611 5612 5613 5614 5615 5616 5618 5619 5620 5621 5622 5624 5625 5625 5626 5627
5621 5620 5620 5622 5620 5618 5619 5619 5617 5616 5615 5614 5613 5612 5611 5608 5606 5604 5603 5602 5600 5599 5598 5598 5598 5598 5598 5598 5599 5600 5601 5602 5603 5604 5606 5607 5608 5610 5611 5612 5613 5614 5614 5615
5620 5619 5619 5619 5617 5616 5616 5616 5612 5611 5609 5608 5606 5604 5602 5600 5598 5596 5594 5592 5590 5589 5588 5587 5586 5586 5586 5587 5587 5588 5589 5590 5591 5592 5593 5595 5596 5597 5598 5600 5601 5602 5602 5603
5619 5617 5619 5616 5614 5613 5612 5609 5607 5605 5603 5601 5599 5596 5593 5591 5588 5586 5584 5582 5580 5578 5577 5576 5575 5575 5575 5575 5575 5576 5576 5577 5578 5579 5581 5582 5583 5585 5586 5587 5589 5590 5590 5591
5619 5619 5616 5613 5611 5609 5607 5605 5602 5600 5597 5594 5591 5588 5585 5582 5579 5577 5575 5572 5570 5568 5567 5565 5564 5564 5563 5563 5563 5564 5564 5565 5566 5567 5568 5570 5571 5572 5574 5575 5576 5577 5578 5579
5617 5615 5613 5610 5608 5606 5603 5600 5597 5594 5591 5587 5584 5580 5577 5573 5570 5568 5565 5562 5560 5558 5556 5554 5553 5552 5551 5551 5551 5552 5552 5553 5554 5555 5556 5557 5559 5560 5562 5563 5564 5565 5566 5567
5614 5612 5610 5607 5605 5602 5599 5595 5592 5588 5584 5580 5576 5572 5568 5564 5561 5558 5554 5551 5549 5546 5544 5543 5542 5541 5540 5539 5540 5540 5540 5541 5541 5542 5543 5545 5546 5548 5549 5551 5552 5553 5554 5555
5612 5610 5607 5605 5601 5598 5594 5591 5587 5583 5578 5573 5569 5564 5560 5556 5551 5547 5544 5540 5537 5535 5532 5531 5530 5529 5528 5527 5527 5528 5528 5529 5529 5530 5531 5533 5534 5536 5537 5539 5540 5541 5543 5544
5608 5606 5603 5600 5597 5593 5590 5585 5581 5576 5572 5567 5562 5557 5552 5547 5542 5537 5533 5529 5526 5523 5521 5519 5517 5516 5515 5515 5515 5515 5515 5516 5517 5518 5519 5520 5522 5523 5525 5526 5528 5529 5530 5532
5604 5601 5598 5595 5592 5588 5584 5580 5575 5570 5565 5559 5554 5549 5544 5538 5533 5527 5523 5518 5515 5512 5509 5506 5505 5503 5502 5502 5502 5502 5503 5503 5504 5506 5507 5508 5510 5511 5513 5514 5516 5517 5518 5520
5599 5596 5593 5590 5586 5582 5578 5573 5568 5563 5557 5551 5546 5540 5534 5529 5523 5518 5512 5508 5504 5500 5497 5494 5492 5490 5489 5489 5489 5489 5489 5490 5491 5493 5494 5496 5497 5499 5500 5502 5504 5505 5506 5508
5594 5591 5587 5584 5580 5576 5571 5566 5561 5555 5549 5543 5537 5531 5525 5519 5513 5508 5502 5497 5493 5489 5485 5482 5479 5477 5475 5475 5475 5476 5476 5477 5478 5480 5481 5483 5484 5486 5488 5490 5491 5493 5494 5496
5588 5585 5581 5577 5573 5568 5564 5558 5553 5547 5541 5534 5528 5521 5515 5509 5503 5497 5492 5486 5482 5477 5473 5470 5467 5465 5463 5462 5462 5463 5463 5464 5465 5466 5468 5470 5472 5474 5476 5477 5479 5481 5482 5483
5582 5578 5575 5571 5566 5561 5556 5550 5544 5538 5531 5525 5518 5512 5505 5498 5492 5487 5481 5475 5470 5465 5461 5458 5455 5453 5451 5450 5450 5450 5450 5451 5452 5454 5455 5457 5459 5461 5463 5465 5467 5469 5470 5471
5575 5572 5568 5563 5558 5553 5548 5542 5535 5529 5522 5515 5508 5501 5495 5488 5482 5476 5469 5464 5458 5453 5449 5445 5442 5440 5439 5437 5437 5438 5438 5439 5440 5441 5443 5445 5447 5449 5451 5453 5455 5457 5458 5459
5568 5564 5560 5555 5550 5545 5539 5533 5526 5519 5512 5505 5498 5491 5484 5478 5471 5465 5458 5452 5446 5441 5437 5433 5430 5428 5426 5425 5425 5425 5426 5427 5428 5429 5431 5433 5435 5437 5440 5442 5443 5445 5446 5448
5561 5557 5552 5547 5542 5536 5530 5524 5517 5510 5502 5495 5488 5481 5474 5467 5460 5454 5447 5442 5436 5430 5426 5422 5419 5417 5415 5414 5413 5413 5414 5414 5416 5417 5419 5421 5423 5426 5428 5430 5432 5433 5435 5436
5553 5549 5544 5539 5534 5527 5521 5514 5507 5500 5493 5486 5478 5471 5464 5457 5450 5444 5437 5432 5426 5421 5416 5412 5409 5406 5404 5402 5402 5401 5402 5403 5404 5406 5408 5410 5412 5414 5416 5418 5420 5422 5423 5425
5545 5540 5536 5530 5524 5518 5511 5504 5497 5490 5483 5476 5468 5461 5454 5447 5440 5434 5429 5423 5417 5412 5407 5402 5399 5396 5393 5392 5390 5390 5391 5392 5393 5394 5396 5398 5400 5402 5404 5407 5409 5410 5412 5414
5536 5532 5527 5521 5515 5508 5502 5494 5487 5480 5472 5465 5458 5451 5444 5437 5431 5424 5418 5413 5407 5402 5397 5392 5388 5385 5383 5381 5380 5380 5380 5381 5382 5383 5385 5387 5389 5391 5393 5395 5397 5399 5401 5403
5528 5523 5517 5512 5505 5499 5492 5484 5477 5469 5462 5455 5447 5440 5433 5427 5421 5415 5409 5403 5398 5392 5387 5382 5378 5375 5373 5371 5370 5370 5370 5370 5371 5372 5373 5375 5377 5380 5382 5384 5386 5388 5390 5392
5518 5513 5508 5501 5495 5488 5481 5474 5467 5459 5452 5445 5437 5430 5423 5417 5411 5405 5399 5394 5388 5383 5378 5373 5369 5366 5364 5362 5361 5361 5360 5361 5361 5362 5363 5365 5366 5368 5370 5372 5374 5376 5378 5380
5508 5503 5497 5491 5484 5478 5471 5463 5456 5449 5441 5434 5427 5420 5413 5407 5401 5395 5390 5384 5378 5373 5369 5365 5361 5358 5356 5355 5354 5353 5353 5353 5353 5353 5354 5355 5356 5357 5359 5361 5363 5365 5367 5369